Location: Zapote
(9.9191°N, 84.0597°W)
Time: 11:25:45
(UTC-06:00)

Courier 1B Rocket - Pass Details

Date: 07 March 2021
Orbit: 920 x 1202 km, 28.2° (Epoch: 12 April)

Event Time Altitude Azimuth Distance (km) Brightness Sun altitude
Rises 21:06:33 0° 281° (W) 4,087 8.9 -49.9°
Reaches altitude 10° 21:09:45 10° 272° (W) 3,127 8.1 -50.7°
Enters shadow 21:11:48 18° 262° (W) 2,577 7.5 -51.2°
